CW4621 Weather Reports


Display with metric or nautical units.
time (UTC)temp
F
wind
direction
speed
MPH
gust
MPH
rain 1hr
in
rain 24hr
in
rain mn
in
humidity
%
barometer
mb
20260504215105 75 166 2.0 3.0 0.00 0.00 0.00 31 1009.3
20260504214605 74 103 2.0 8.0 0.00 0.00 0.00 32 1009.4
20260504214105 74 184 5.0 10.0 0.00 0.00 0.00 31 1009.4
20260504213604 75 170 4.0 7.0 0.00 0.00 0.00 30 1009.4
20260504213104 75 196 2.0 7.0 0.00 0.00 0.00 32 1009.4
20260504212605 75 171 2.0 6.0 0.00 0.00 0.00 32 1009.4
20260504211605 75 232 4.0 9.0 0.00 0.00 0.00 31 1009.3
20260504211104 75 158 3.0 6.0 0.00 0.00 0.00 31 1009.3
20260504204605 75 186 4.0 10.0 0.00 0.00 0.00 31 1009.4
20260504204104 75 187 5.0 10.0 0.00 0.00 0.00 30 1009.5
20260504203604 75 311 3.0 6.0 0.00 0.00 0.00 31 1009.4
20260504203105 75 196 3.0 7.0 0.00 0.00 0.00 31 1009.4
20260504202605 74 168 3.0 12.0 0.00 0.00 0.00 31 1009.3
20260504202105 75 146 3.0 9.0 0.00 0.00 0.00 31 1009.4
20260504201605 75 137 3.0 12.0 0.00 0.00 0.00 32 1009.4
20260504201104 74 182 3.0 12.0 0.00 0.00 0.00 30 1009.5
20260504200604 74 179 3.0 12.0 0.00 0.00 0.00 31 1009.5
20260504200105 74 157 4.0 8.0 0.00 0.00 0.00 31 1009.5
20260504195605 74 172 4.0 12.0 0.00 0.00 0.00 30 1009.6
20260504195106 74 163 3.0 12.0 0.00 0.00 0.00 31 1009.7
20260504194605 74 203 3.0 9.0 0.00 0.00 0.00 30 1009.8
20260504194104 74 40 2.0 10.0 0.00 0.00 0.00 31 1009.8
20260504193605 75 150 3.0 10.0 0.00 0.00 0.00 31 1010.0
20260504193105 75 180 3.0 7.0 0.00 0.00 0.00 33 1010.0
20260504192605 74 160 2.0 6.0 0.00 0.00 0.00 31 1010.0
20260504192104 74 281 3.0 8.0 0.00 0.00 0.00 35 1010.1
20260504191604 74 96 3.0 12.0 0.00 0.00 0.00 30 1010.1
20260504191104 74 168 4.0 12.0 0.00 0.00 0.00 31 1010.2
20260504190604 74 169 2.0 9.0 0.00 0.00 0.00 33 1010.3
20260504190104 74 36 3.0 12.0 0.00 0.00 0.00 32 1010.3
20260504185605 73 193 4.0 10.0 0.00 0.00 0.00 31 1010.4
20260504185105 73 207 3.0 8.0 0.00 0.00 0.00 31 1010.4
20260504184604 74 169 3.0 10.0 0.00 0.00 0.00 31 1010.6
20260504184104 74 214 3.0 9.0 0.00 0.00 0.00 33 1010.7
20260504183604 73 172 2.0 5.0 0.00 0.00 0.00 34 1010.7
20260504183105 73 188 3.0 8.0 0.00 0.00 0.00 31 1010.8
20260504182604 73 153 3.0 9.0 0.00 0.00 0.00 33 1011.0
20260504182104 73 194 4.0 12.0 0.00 0.00 0.00 32 1011.1
20260504181604 73 180 3.0 12.0 0.00 0.00 0.00 33 1011.1
20260504181104 73 160 3.0 10.0 0.00 0.00 0.00 33 1011.2
20260504180105 72 181 3.0 10.0 0.00 0.00 0.00 34 1011.3
20260504175604 72 113 3.0 12.0 0.00 0.00 0.00 31 1011.4
20260504175105 72 150 2.0 10.0 0.00 0.00 0.00 33 1011.5
20260504174604 72 169 2.0 9.0 0.00 0.00 0.00 34 1011.6
20260504174104 72 181 5.0 8.0 0.00 0.00 0.00 32 1011.6
20260504173605 72 173 5.0 8.0 0.00 0.00 0.00 31 1011.6
20260504173105 72 180 5.0 8.0 0.00 0.00 0.00 33 1011.8
20260504172604 72 197 2.0 8.0 0.00 0.00 0.00 34 1011.7
20260504172105 72 186 2.0 7.0 0.00 0.00 0.00 33 1011.8
20260504171605 72 145 2.0 8.0 0.00 0.00 0.00 35 1011.9
20260504171104 72 162 2.0 10.0 0.00 0.00 0.00 35 1012.0
20260504170605 71 119 2.0 6.0 0.00 0.00 0.00 33 1011.9
20260504170105 71 182 3.0 9.0 0.00 0.00 0.00 33 1012.1
20260504160104 70 202 3.0 10.0 0.00 0.00 0.00 32 1012.9
20260504151104 67 6 2.0 9.0 0.00 0.00 0.00 42 1013.3
20260504150606 67 209 3.0 7.0 0.00 0.00 0.00 42 1013.3
20260504150105 67 191 3.0 8.0 0.00 0.00 0.00 43 1013.3
20260504140604 64 195 3.0 8.0 0.00 0.00 0.00 49 1013.5
20260504140105 64 184 3.0 6.0 0.00 0.00 0.00 51 1013.5
20260504130604 60 129 3.0 7.0 0.00 0.00 0.00 55 1013.9
20260504130105 60 170 3.0 6.0 0.00 0.00 0.00 56 1014.0
20260504120105 52 112 0.0 6.0 0.00 0.00 0.00 70 1014.5
20260504110604 47 146 0.0 2.0 0.00 0.00 0.00 73 1014.7
20260504110105 46 127 1.0 2.0 0.00 0.00 0.00 74 1014.8
20260504090104 49 126 0.0 1.0 0.00 0.00 0.00 65 1014.6
20260504081104 48 233 1.0 3.0 0.00 0.00 0.00 64 1014.5
20260504080605 47 141 1.0 2.0 0.00 0.00 0.00 64 1014.6
20260504080104 47 114 1.0 1.0 0.00 0.00 0.00 63 1014.6
20260504070104 44 127 0.0 1.0 0.00 0.00 0.00 65 1014.3
20260504060104 45 111 0.0 0.0 0.00 0.00 0.00 62 1014.3
20260504050604 46 124 0.0 1.0 0.00 0.00 0.00 59 1014.2
20260504050104 46 124 0.0 0.0 0.00 0.00 0.00 58 1014.3
20260504045604 46 124 0.0 0.0 0.00 0.00 0.00 58 1014.2
20260504044605 46 124 0.0 1.0 0.00 0.00 0.00 57 1014.1
20260504043605 46 124 0.0 0.0 0.00 0.00 0.00 56 1014.0
20260504042605 47 124 0.0 1.0 0.00 0.00 0.00 56 1013.9
20260504042104 47 124 0.0 0.0 0.00 0.00 0.00 56 1013.9
20260504041604 47 124 0.0 0.0 0.00 0.00 0.00 56 1013.9
20260504040605 47 124 0.0 0.0 0.00 0.00 0.00 55 1013.8
20260504035605 48 124 0.0 1.0 0.00 0.00 0.00 54 1013.7
20260504034604 48 124 0.0 0.0 0.00 0.00 0.00 53 1013.6
20260504034106 48 124 0.0 1.0 0.00 0.00 0.00 53 1013.6
20260504033605 48 161 0.0 1.0 0.00 0.00 0.00 53 1013.6
20260504032605 49 109 0.0 0.0 0.00 0.00 0.00 51 1013.5
20260504032105 49 109 0.0 1.0 0.00 0.00 0.00 51 1013.5
20260504031605 49 108 0.0 1.0 0.00 0.00 0.00 51 1013.4
20260504031106 49 205 0.0 1.0 0.00 0.00 0.00 51 1013.4
20260504030105 49 230 0.0 1.0 0.00 0.00 0.00 50 1013.5
20260504025105 49 237 0.0 1.0 0.00 0.00 0.00 50 1013.5
20260504024605 50 237 0.0 1.0 0.00 0.00 0.00 49 1013.6
20260504024105 50 235 0.0 1.0 0.00 0.00 0.00 49 1013.6
20260504023605 50 114 0.0 1.0 0.00 0.00 0.00 49 1013.6
20260504023105 50 198 0.0 1.0 0.00 0.00 0.00 48 1013.6
20260504022604 50 101 0.0 1.0 0.00 0.00 0.00 48 1013.6
20260504022105 50 101 0.0 0.0 0.00 0.00 0.00 48 1013.5
20260504021605 50 142 0.0 1.0 0.00 0.00 0.00 48 1013.5
20260504021105 50 134 0.0 0.0 0.00 0.00 0.00 47 1013.4
20260504020606 50 134 0.0 1.0 0.00 0.00 0.00 47 1013.4
20260504020105 50 136 0.0 0.0 0.00 0.00 0.00 47 1013.4
20260504015105 50 136 0.0 0.0 0.00 0.00 0.00 47 1013.5
20260504014606 50 136 0.0 0.0 0.00 0.00 0.00 46 1013.4
20260504013605 51 136 0.0 0.0 0.00 0.00 0.00 46 1013.3
20260504013105 51 136 0.0 0.0 0.00 0.00 0.00 45 1013.2
20260504012604 51 136 0.0 0.0 0.00 0.00 0.00 45 1013.2
20260504012104 51 136 0.0 1.0 0.00 0.00 0.00 45 1013.2
20260504011606 51 136 0.0 0.0 0.00 0.00 0.00 44 1013.1
20260504010605 52 136 0.0 0.0 0.00 0.00 0.00 43 1012.9
20260504010105 53 136 0.0 0.0 0.00 0.00 0.00 42 1012.9
20260504005605 53 137 0.0 0.0 0.00 0.00 0.00 41 1012.8
20260504005105 53 137 0.0 0.0 0.00 0.00 0.00 40 1012.8
20260504004605 54 137 0.0 0.0 0.00 0.00 0.00 40 1012.7
20260504003605 55 136 0.0 1.0 0.00 0.00 0.00 38 1012.5
20260504002104 56 198 1.0 2.0 0.00 0.00 0.00 37 1012.3
20260504001604 57 195 0.0 3.0 0.00 0.00 0.00 36 1012.3
20260504001106 57 288 0.0 3.0 0.00 0.00 0.00 36 1012.2
20260504000605 57 129 0.0 3.0 0.00 0.00 0.00 35 1012.3
20260504000104 57 324 1.0 3.0 0.00 0.00 0.00 35 1012.2
20260503235104 58 312 1.0 3.0 0.00 0.00 0.00 35 1012.2
20260503234605 58 323 2.0 8.0 0.00 0.00 0.00 33 1012.2
20260503234105 58 181 1.0 7.0 0.00 0.00 0.00 33 1012.1
20260503233105 59 317 2.0 3.0 0.00 0.00 0.00 33 1012.0
20260503232605 59 126 2.0 3.0 0.00 0.00 0.00 32 1011.9
20260503232105 59 294 2.0 5.0 0.00 0.00 0.00 32 1011.9
20260503231605 59 192 2.0 6.0 0.00 0.00 0.00 32 1011.8
20260503231104 59 176 2.0 12.0 0.00 0.00 0.00 31 1011.8
20260503230604 59 347 3.0 9.0 0.00 0.00 0.00 31 1011.7
20260503230105 60 251 2.0 12.0 0.00 0.00 0.00 31 1011.7
20260503225604 60 312 3.0 8.0 0.00 0.00 0.00 31 1011.7
20260503225105 60 151 1.0 6.0 0.00 0.00 0.00 31 1011.6
20260503224604 60 313 3.0 9.0 0.00 0.00 0.00 30 1011.7
20260503224105 60 183 2.0 12.0 0.00 0.00 0.00 31 1011.7
20260503223605 60 100 3.0 9.0 0.00 0.00 0.00 30 1011.7
20260503222605 60 215 2.0 5.0 0.00 0.00 0.00 31 1011.7
20260503222105 60 289 3.0 9.0 0.00 0.00 0.00 30 1011.7
20260503221605 60 351 2.0 9.0 0.00 0.00 0.00 31 1011.7
20260503221105 61 180 5.0 10.0 0.00 0.00 0.00 30 1011.7
20260503220105 61 26 3.0 7.0 0.00 0.00 0.00 29 1011.7
20260503215605 61 198 2.0 10.0 0.00 0.00 0.00 30 1011.7